Home   Weather   Tacoma   Past weeks
Flag for USA

Past Weather in Tacoma, Washington, USA — Yesterday and Last 2 Weeks

Now
52 °F

Rain. Fog.


Feels Like: 48 °F
Forecast: 55 / 50 °F
Wind: 12 mph from Southwest

Location: Tacoma Narrows Airport

Current Time: Oct 17, 2019 at 1:31:06 pm

Latest Report: Oct 17, 2019 at 12:53 pm


Visibility: 6 mi

Pressure: 29.71 "Hg

Humidity: 89%

Dew Point: 49 °F

Location of TacomaLocation

Past Weather in Tacoma — Graph

°F

Tacoma Temperature Yesterday

Maximum temperature yesterday: 56 °F (at 3:53 pm)
Minimum temperature yesterday: 48 °F (at 7:53 am)
Average temperature yesterday: 51 °F

High & Low Weather Summary for the Past Weeks

 TemperatureHumidityPressure
High62 °F (Oct 5, 2:53 pm)100% (Oct 6, 5:53 am)30.47 "Hg (Oct 6, 5:53 am)
Low35 °F (Oct 10, 4:53 am)35% (Oct 11, 3:53 pm)29.65 "Hg (Oct 16, 6:53 pm)
Average50 °F78%30.08 "Hg
* Reported Oct 2 11:53 am — Oct 17 11:53 am, Tacoma. Weather by CustomWeather, © 2019

Note: Actual official high and low records may vary slightly from our data, if they occured in-between our weather recording intervals... More about our weather records

Advertising

Tacoma Weather History for the Previous 24 Hours

Scroll right to see more
 ConditionsComfort  
Time TempWeatherWind HumidityBarometerVisibility
11:53 am
Thu, Oct 17
53 °FCloudy.20 mph86%29.70 "Hg10 mi
10:53 am52 °FLight rain. Mostly cloudy.15 mph86%29.70 "Hg7 mi
9:53 am51 °FLight rain. Mostly cloudy.16 mph89%29.70 "Hg10 mi
8:53 am50 °FLight rain. Mostly cloudy.16 mph89%29.69 "Hg10 mi
6:53 am50 °FPassing clouds.14 mph86%29.68 "Hg10 mi
5:53 am50 °FOvercast.12 mph89%29.69 "Hg10 mi
4:53 am50 °FPassing clouds.13 mph89%29.69 "Hg10 mi
3:53 am50 °FPassing clouds.12 mph89%29.70 "Hg10 mi
2:53 am51 °FPassing clouds.9 mph89%29.70 "Hg10 mi
1:53 am51 °FMostly cloudy.10 mph92%29.70 "Hg10 mi
12:53 am51 °FPassing clouds.10 mph92%29.71 "Hg10 mi
11:53 pm
Wed, Oct 16
51 °FPassing clouds.12 mph92%29.70 "Hg10 mi
10:53 pm51 °FPartly cloudy.8 mph96%29.70 "Hg10 mi
9:53 pm52 °FMostly cloudy.12 mph93%29.70 "Hg10 mi
9:23 pm53 °FLight rain. Fog.10 mph93%29.69 "Hg5 mi
8:53 pm53 °FOvercast.8 mph93%29.67 "Hg10 mi
8:20 pm53 °FPartly cloudy.9 mph93%29.67 "Hg10 mi
8:06 pm53 °FOvercast.8 mph93%29.66 "Hg10 mi
6:53 pm53 °FLight rain. Mostly cloudy.14 mph93%29.65 "Hg10 mi
5:59 pm53 °FLight rain. Fog.16 mph93%29.66 "Hg4 mi
4:53 pm56 °FLight rain. Cloudy.12 mph84%29.66 "Hg6 mi
3:53 pm56 °FCloudy.7 mph87%29.66 "Hg10 mi
2:53 pm54 °FCloudy.5 mph93%29.69 "Hg10 mi
1:53 pm52 °FMore clouds than sun.6 mph97%29.73 "Hg10 mi
Weather by CustomWeather, © 2019

See weather overview